Lid_Strength_Index
-1 -1 -1 -1 -1 -1 -1 -1 -1 -1 -1 -1 -1 -1 -1 -1 0 1 1 1 1 2 -1 -1 -0 -0 1 5 5 1 -1 -1 0 2 3 4 6 7 8 7 8 9 10 11 10 10 10
-1 -1 -1 -1 -1 -1 -1 -1 -1 -1 -1 -1 -1 -1 -1 -1 -1 1 1 1 0 1 -1 -1 -0 -0 3 8 0 0 1 1 2 3 4 3 5 5 7 8 8 8 9 9 10 10 11
-1 -1 -1 -1 -1 -1 -1 -1 -1 -1 -1 -1 -1 -1 -1 -1 -1 1 1 2 1 1 -0 -1 -1 2 5 5 1 0 1 1 2 3 5 3 4 5 6 9 8 8 11 10 10 12 12
-1 -1 -1 -1 -1 -1 -1 -1 -1 -1 -1 -1 -1 -1 -1 -1 0 1 1 1 1 0 -1 -1 -0 3 6 1 -0 1 0 1 1 2 3 3 4 6 7 7 8 9 10 13 10 10 11
-1 -1 -1 -1 -1 -1 -1 -1 -1 -1 -1 -1 -1 -1 -1 -1 -0 1 2 1 2 -0 -1 -1 2 5 8 2 2 1 0 3 2 3 3 3 5 7 8 10 11 10 14 12 11 10 11
-1 -1 -1 -1 -1 -1 -1 -1 -1 -1 -1 -1 -1 -0 -0 -0 0 1 2 1 1 -0 0 0 2 8 7 6 2 2 0 1 4 5 6 7 8 10 10 11 17 15 13 12 11 9 10
-1 -1 -1 -1 -1 -1 -1 -1 -1 -1 -1 -0 -1 -0 -0 0 1 2 1 3 6 6 4 7 7 7 6 3 2 3 2 3 4 6 10 10 12 14 11 9 9 10 11 12 10 9 9
-1 -1 -0 -0 -1 -0 -1 -1 -1 -1 -1 -1 -0 -0 0 1 1 2 2 5 5 3 9 5 5 5 5 3 6 4 2 6 8 11 10 11 14 10 9 9 9 10 12 12 10 11 10
-1 -0 -0 -0 -0 -0 -1 -1 -1 -1 -1 -0 -0 -0 -0 -0 1 3 5 5 1 1 9 8 6 6 6 4 6 6 4 5 9 12 11 13 10 9 9 10 11 11 12 12 13 10 11
-0 -0 -0 -0 -0 -1 -0 -0 -0 -0 -0 -0 -0 0 0 0 4 4 7 1 1 1 12 12 9 8 6 6 8 3 3 5 8 11 10 11 9 10 10 11 10 14 10 10 13 13 15
-0 -0 -0 -0 -0 -0 -0 -1 -0 -0 -0 -0 -0 -0 0 1 4 6 5 1 1 3 20 11 11 7 6 8 7 7 3 6 9 9 10 12 11 11 12 11 9 11 11 12 13 14 15
-0 -0 -0 -0 -0 -0 -0 -0 -1 -0 -1 -0 0 0 1 2 3 4 3 2 4 14 20 15 11 11 10 9 8 7 9 7 6 8 9 10 7 8 9 9 10 9 11 13 14 15 18
-0 -0 -0 -0 -0 -0 -0 -0 -1 -1 -0 -0 0 1 2 2 6 3 5 5 14 19 14 17 15 12 11 11 10 9 11 11 12 15 14 11 10 9 7 12 11 11 12 18 19 19 19
-0 -0 -0 -0 -0 -0 -1 -1 -1 -1 -1 -0 -0 1 3 4 3 4 9 10 18 15 14 13 13 12 14 11 11 10 11 12 9 9 13 15 17 11 8 9 12 12 12 16 21 20 16
-0 -0 -0 0 -0 -1 -0 -1 -0 -1 -0 -0 -0 2 4 4 4 7 13 16 16 13 13 13 13 15 15 12 12 11 12 12 10 9 13 14 14 10 9 8 9 12 15 10 15 17 16
-0 -0 -0 0 -0 -0 -0 -0 -0 -0 -0 -0 2 4 6 4 4 10 14 14 13 9 11 11 15 13 16 15 14 13 13 10 10 8 7 10 16 11 11 9 8 10 9 14 13 20 20
-0 -0 -0 -0 -0 -0 -0 -0 -0 -0 -0 -0 3 7 6 5 7 13 15 14 13 9 9 10 12 13 13 14 12 13 13 10 8 10 9 9 13 14 12 12 13 13 12 12 11 13 18
-0 -0 0 0 -0 -0 -0 -0 -0 -0 -0 1 4 10 6 5 12 13 13 13 11 10 8 9 9 10 12 12 13 13 13 10 7 9 12 10 12 16 14 12 10 10 11 11 15 16 13
-0 -0 -0 0 -0 -0 -0 -0 -0 -0 -0 2 7 8 6 6 14 13 13 12 11 10 9 10 10 9 9 11 14 11 11 8 8 10 11 11 14 17 16 13 12 12 11 10 10 12 16
-0 -0 -0 -0 -0 -0 -0 -0 -0 -0 -0 2 6 11 10 9 10 12 14 13 13 9 9 9 10 9 10 11 11 12 11 10 9 9 9 10 13 14 16 15 13 15 13 11 11 14 14
-0 -0 -0 -0 -0 -0 -0 -0 -0 -0 0 2 6 9 10 13 12 11 13 12 13 13 11 9 11 11 11 14 13 13 13 13 10 9 10 10 14 13 12 12 12 13 13 11 12 12 13
-0 -0 -0 -0 -0 -0 -0 -0 -0 -0 1 3 8 9 9 11 11 11 13 13 13 13 11 11 11 11 11 13 12 13 12 12 12 10 11 10 14 13 15 13 12 13 12 11 12 12 11
-0 -0 -0 -0 -0 -0 -0 -0 -0 -0 1 4 5 6 7 11 11 12 13 13 12 10 10 9 9 10 10 10 9 9 9 10 10 11 11 12 13 14 16 13 14 15 14 12 12 11 11
-0 -0 -0 -0 -0 -0 -0 -0 -0 -0 2 3 4 5 8 12 11 11 11 11 11 11 11 10 8 9 9 7 8 8 9 9 10 10 9 12 13 14 16 14 18 13 9 10 11 10 9
-0 -0 -0 -0 -0 -0 -0 -0 -0 1 1 3 4 5 7 12 11 11 10 11 11 10 11 11 10 9 7 9 12 13 13 13 14 10 9 9 11 15 17 16 13 12 11 11 12 12 9
-0 -0 -0 -0 -0 -0 -0 -0 -0 0 1 2 4 4 6 10 13 11 11 10 11 13 12 13 10 8 7 10 13 15 16 14 15 14 12 11 10 12 15 16 18 13 10 9 9 14 8
-0 -0 -0 -0 -0 -0 -0 -0 -0 0 1 2 4 4 5 10 11 11 12 11 10 11 12 12 13 12 10 12 14 14 16 12 15 16 16 14 14 15 15 16 14 11 10 9 14 13 9
-0 -0 -0 -0 -0 -0 -0 -0 -0 0 1 2 4 3 5 9 11 11 11 12 11 10 12 12 11 11 13 13 14 14 14 13 13 12 13 14 14 15 14 16 17 9 10 12 9 9 9
-0 -1 -0 -0 -0 -0 -0 -0 -0 0 1 1 4 3 3 8 10 9 10 10 11 12 11 12 11 12 8 12 12 13 14 13 13 15 12 14 11 13 12 12 10 9 9 8 8 8 9